レモン彗星

C/2024 D1 ( Lemmon )

English version
Home page
Updated on August 10, 2025

---------------------------------------------------------------------

・ プロフィール

発見日 2024年2月16日
発見光度 21.9等
発見者 Mt. Lemmon survey

・ 軌道要素

Epoch 2025 May 5.0 TT = JDT 2460800.5
T 2027 Dec. 3.37357 TT                                  Pike
q   6.6936457            (2000.0)            P               Q
z  +0.0001167      Peri.  125.77272     +0.58777787     +0.80901075
 +/-0.0000113      Node   179.66347     +0.26113889     -0.19479232
e   0.9992188      Incl.  132.45054     +0.76571774     -0.55457872
From 62 observations 2023 Dec. 27-2025 Feb. 28, mean residual 0".6.

・ 光度変化

        m1 = 6.0 + 5 logΔ + 10.0 log r

---------------------------------------------------------------------

軌道要素はM.P.E.C. 2025-M120に掲載されたものです。
光度グラフはComet for Windowsで作成したものです。

---------------------------------------------------------------------

Copyright(C) Seiichi Yoshida (comet@aerith.net). All rights reserved.